Weather History for Cook, MN

Change the Weather History Date:

Thursday, December 8, 2011

  Actual Average Record
Temperature  
Mean Temperature 10 °F -  
Max Temperature 14 °F 26 °F 39 °F (1999)
Min Temperature 6 °F 11 °F -32 °F (2013)
Degree Days  
Heating Degree Days 55    
Moisture  
Dew Point 1 °F    
Average Humidity 66    
Maximum Humidity 79    
Minimum Humidity 52    
Precipitation  
Precipitation 0.00 in - - ()
Sea Level Pressure  
Sea Level Pressure 29.93 in    
Wind  
Wind Speed 8 mph (WSW)    
Max Wind Speed 16 mph    
Max Gust Speed 24 mph    
Visibility 9 miles    
Events Snow    
Averages and records for this station are not official NWS values.
T = Trace of Precipitation, MM = Missing Value Source: NWS Daily Summary

Daily Weather History Graph

Daily Weather History Graph

Search for Another Location

Airport:

Trip Planner

Search our weather history database for the weather conditions in past years. The results will help you decide how hot, cold, wet, or windy it might be!

Date:

Astronomy

Dec. 08, 2011 Rise Set
Actual Time 7:46 AM CST 4:18 PM CST
Civil Twilight 7:10 AM CST 4:54 PM CST
Nautical Twilight 6:31 AM CST 5:33 PM CST
Astronomical Twilight 5:54 AM CST 6:11 PM CST
Moon 2:59 PM CST (12/8) 5:57 AM CST (12/8)
Length of Visible Light 9h 43m
Length of Day
8h 31m
Waxing Gibbous, 97% of the Moon is Illuminated
Dec 8
Waxing Gibbous
Dec 10
Full
Dec 17
Last Quarter
Dec 24
New
Jan 1
First Quarter

Hourly Weather History & Observations

Time (CST) Temp. Windchill Dew Point Humidity Pressure Visibility Wind Dir Wind Speed Gust Speed Precip Events Conditions
12:57 AM 12.2 °F 2.9 °F 3.2 °F 67% 29.89 in 10.0 mi WSW 5.8 mph - N/A   Clear
1:36 AM 12.2 °F 2.9 °F 1.4 °F 62% 29.88 in 10.0 mi WSW 5.8 mph - N/A   Clear
1:57 AM 12.2 °F 1.7 °F 3.2 °F 67% 29.88 in 10.0 mi West 6.9 mph - N/A   Clear
2:17 AM 12.2 °F -1.8 °F 3.2 °F 67% 29.88 in 10.0 mi WSW 11.5 mph 16.1 mph N/A   Clear
2:36 AM 12.2 °F -0.2 °F 3.2 °F 67% 29.89 in 10.0 mi WSW 9.2 mph - N/A   Clear
2:57 AM 12.2 °F 1.7 °F 1.4 °F 62% 29.89 in 10.0 mi WSW 6.9 mph - N/A   Clear
3:16 AM 12.2 °F 0.7 °F 1.4 °F 62% 29.88 in 10.0 mi West 8.1 mph - N/A   Clear
3:36 AM 10.4 °F -0.4 °F 1.4 °F 67% 29.88 in 10.0 mi WSW 6.9 mph - N/A   Clear
3:57 AM 10.4 °F -0.4 °F 1.4 °F 67% 29.88 in 10.0 mi West 6.9 mph - N/A   Clear
4:16 AM 10.4 °F 0.8 °F 1.4 °F 67% 29.88 in 10.0 mi West 5.8 mph - N/A   Clear
4:36 AM 10.4 °F 0.8 °F 1.4 °F 67% 29.88 in 10.0 mi WSW 5.8 mph - N/A   Mostly Cloudy
4:56 AM 10.4 °F 0.8 °F 1.4 °F 67% 29.88 in 10.0 mi WSW 5.8 mph - N/A   Overcast
5:16 AM 10.4 °F -0.4 °F 1.4 °F 67% 29.88 in 10.0 mi WSW 6.9 mph - N/A   Mostly Cloudy
5:37 AM 8.6 °F -2.6 °F 1.4 °F 73% 29.88 in 10.0 mi WSW 6.9 mph - N/A   Scattered Clouds
5:56 AM 8.6 °F -2.6 °F 1.4 °F 73% 29.89 in 10.0 mi WSW 6.9 mph - N/A   Clear
6:16 AM 8.6 °F -2.6 °F 1.4 °F 73% 29.89 in 10.0 mi WSW 6.9 mph - N/A   Clear
6:56 AM 8.6 °F -5.5 °F 3.2 °F 79% 29.90 in 10.0 mi WSW 10.4 mph - N/A   Mostly Cloudy
7:16 AM 10.4 °F -2.4 °F 3.2 °F 73% 29.90 in 10.0 mi WSW 9.2 mph - N/A   Overcast
7:37 AM 10.4 °F -3.3 °F 3.2 °F 73% 29.91 in 10.0 mi West 10.4 mph 16.1 mph N/A   Overcast
7:56 AM 10.4 °F -3.3 °F 5.0 °F 79% 29.91 in 3.0 mi West 10.4 mph 17.3 mph N/A Snow Light Snow
8:16 AM 10.4 °F -5.4 °F 5.0 °F 79% 29.92 in 5.0 mi West 13.8 mph 24.2 mph N/A   Haze
8:37 AM 10.4 °F -4.8 °F 3.2 °F 73% 29.92 in 10.0 mi West 12.7 mph - N/A   Overcast
8:56 AM 10.4 °F -3.3 °F 5.0 °F 79% 29.93 in 2.0 mi West 10.4 mph 17.3 mph N/A Snow Light Snow
9:16 AM 12.2 °F -3.1 °F 3.2 °F 67% 29.93 in 10.0 mi West 13.8 mph 20.7 mph N/A   Overcast
9:37 AM 10.4 °F -4.1 °F 3.2 °F 73% 29.94 in 10.0 mi West 11.5 mph 21.9 mph N/A   Overcast
9:56 AM 10.4 °F -4.1 °F 1.4 °F 67% 29.95 in 5.0 mi WNW 11.5 mph 21.9 mph N/A   Haze
10:17 AM 10.4 °F -3.3 °F 1.4 °F 67% 29.96 in 7.0 mi WNW 10.4 mph 20.7 mph N/A   Overcast
10:36 AM 10.4 °F -4.1 °F -0.4 °F 62% 29.96 in 10.0 mi West 11.5 mph 18.4 mph N/A   Mostly Cloudy
10:57 AM 10.4 °F -3.3 °F 1.4 °F 67% 29.96 in 10.0 mi WNW 10.4 mph 17.3 mph N/A   Scattered Clouds
11:17 AM 10.4 °F -3.3 °F 3.2 °F 73% 29.96 in 3.0 mi West 10.4 mph 18.4 mph N/A   Haze
11:36 AM 10.4 °F -3.3 °F 5.0 °F 79% 29.96 in 5.0 mi West 10.4 mph - N/A   Haze
11:57 AM 10.4 °F -1.5 °F 3.2 °F 73% 29.96 in 7.0 mi WSW 8.1 mph - N/A   Overcast
12:17 PM 14.0 °F -0.8 °F 1.4 °F 57% 29.96 in 7.0 mi WSW 13.8 mph 21.9 mph N/A   Overcast
12:36 PM 12.2 °F -1.8 °F 1.4 °F 62% 29.95 in 10.0 mi West 11.5 mph 17.3 mph N/A   Mostly Cloudy
12:57 PM 12.2 °F -4.3 °F -0.4 °F 57% 29.95 in 10.0 mi West 16.1 mph 23.0 mph N/A   Scattered Clouds
1:17 PM 12.2 °F -2.5 °F -0.4 °F 57% 29.95 in 10.0 mi West 12.7 mph 19.6 mph N/A   Clear
1:36 PM 12.2 °F -2.5 °F -0.4 °F 57% 29.95 in 10.0 mi West 12.7 mph 18.4 mph N/A   Clear
1:57 PM 14.0 °F -0.8 °F -0.4 °F 53% 29.94 in 10.0 mi West 13.8 mph 17.3 mph N/A   Mostly Cloudy
2:36 PM 12.2 °F -2.5 °F -2.2 °F 53% 29.94 in 10.0 mi West 12.7 mph 21.9 mph N/A   Clear
2:57 PM 12.2 °F -0.2 °F -2.2 °F 53% 29.95 in 10.0 mi West 9.2 mph 16.1 mph N/A   Clear
3:16 PM 12.2 °F -2.5 °F -2.2 °F 53% 29.95 in 10.0 mi West 12.7 mph 18.4 mph N/A   Clear
3:36 PM 12.2 °F -1.8 °F -2.2 °F 53% 29.95 in 10.0 mi WSW 11.5 mph - N/A   Clear
3:57 PM 10.4 °F -0.4 °F -4.0 °F 52% 29.95 in 10.0 mi WSW 6.9 mph - N/A   Clear
4:17 PM 10.4 °F -0.4 °F -4.0 °F 52% 29.96 in 10.0 mi WSW 6.9 mph - N/A   Clear
4:36 PM 10.4 °F -2.4 °F -2.2 °F 57% 29.96 in 10.0 mi WSW 9.2 mph - N/A   Scattered Clouds
5:16 PM 8.6 °F -2.6 °F -2.2 °F 62% 29.96 in 10.0 mi WSW 6.9 mph - N/A   Clear
5:36 PM 8.6 °F -1.3 °F -2.2 °F 62% 29.96 in 10.0 mi WSW 5.8 mph - N/A   Clear
5:57 PM 8.6 °F -1.3 °F -2.2 °F 62% 29.97 in 10.0 mi WSW 5.8 mph - N/A   Clear
6:16 PM 6.8 °F -0.1 °F -2.2 °F 67% 29.97 in 10.0 mi WSW 3.5 mph - N/A   Clear
6:36 PM 6.8 °F -3.5 °F -2.2 °F 67% 29.97 in 10.0 mi SW 5.8 mph - N/A   Clear
6:57 PM 6.8 °F -3.5 °F -2.2 °F 67% 29.97 in 10.0 mi SW 5.8 mph - N/A   Clear
7:16 PM 6.8 °F -3.5 °F -2.2 °F 67% 29.97 in 10.0 mi WSW 5.8 mph - N/A   Scattered Clouds
7:37 PM 6.8 °F -4.8 °F -2.2 °F 67% 29.97 in 10.0 mi WSW 6.9 mph - N/A   Scattered Clouds
7:57 PM 6.8 °F -4.8 °F -2.2 °F 67% 29.97 in 10.0 mi WSW 6.9 mph - N/A   Clear
8:16 PM 6.8 °F -4.8 °F -2.2 °F 67% 29.98 in 10.0 mi WSW 6.9 mph - N/A   Scattered Clouds
8:57 PM 6.8 °F -2.0 °F -0.4 °F 72% 29.97 in 10.0 mi WSW 4.6 mph - N/A   Clear
9:16 PM 5.0 °F -4.1 °F -2.2 °F 72% 29.97 in 10.0 mi SW 4.6 mph - N/A   Clear
9:37 PM 5.0 °F -4.1 °F -0.4 °F 78% 29.98 in 10.0 mi WSW 4.6 mph - N/A   Clear
9:57 PM 3.2 °F -6.2 °F -2.2 °F 78% 29.98 in 10.0 mi WSW 4.6 mph - N/A   Clear
10:16 PM 3.2 °F -6.2 °F -2.2 °F 78% 29.98 in 10.0 mi WSW 4.6 mph - N/A   Clear
10:37 PM 3.2 °F - -2.2 °F 78% 29.98 in 10.0 mi Calm Calm - N/A   Clear
10:57 PM 3.2 °F -6.2 °F -2.2 °F 78% 29.98 in 10.0 mi WSW 4.6 mph - N/A   Clear
11:16 PM 3.2 °F -4.2 °F -2.2 °F 78% 29.99 in 10.0 mi WSW 3.5 mph - N/A   Clear
11:37 PM 1.4 °F - -5.8 °F 72% 29.99 in 10.0 mi Calm Calm - N/A   Clear
11:56 PM 1.4 °F -8.3 °F -4.0 °F 78% 29.99 in 10.0 mi WSW 4.6 mph - N/A   Clear